FW5704 Weather Reports


time (UTC)temp
C
wind
direction
speed
KPH
gust
KPH
rain 1hr
cm
rain 24hr
cm
rain mn
cm
humidity
%
barometer
mb
20260505192034 22 256 6.4 19.3 0.00 0.00 0.00 36 1014.9
20260505191548 22 261 3.2 19.3 0.00 0.00 0.00 37 1015.0
20260505191034 22 232 3.2 16.1 0.00 0.00 0.00 35 1015.2
20260505190535 22 296 1.6 16.1 0.00 0.00 0.00 38 1015.3
20260505190048 23 254 1.6 9.7 0.00 0.00 0.00 40 1015.3
20260505185534 23 19 1.6 12.9 0.00 0.00 0.00 40 1015.3
20260505185035 22 40 6.4 22.5 0.00 0.00 0.00 39 1015.3
20260505184545 22 257 3.2 22.5 0.00 0.00 0.00 41 1015.5
20260505184035 22 267 11.3 22.5 0.00 0.00 0.00 39 1015.5
20260505183534 23 262 4.8 16.1 0.00 0.00 0.00 39 1015.5
20260505183055 22 57 1.6 17.7 0.00 0.00 0.00 43 1015.7
20260505182534 22 240 6.4 17.7 0.00 0.00 0.00 41 1015.6
20260505182035 22 257 3.2 17.7 0.00 0.00 0.00 41 1015.8
20260505181554 21 288 6.4 17.7 0.00 0.00 0.00 42 1015.8
20260505181032 21 254 8.0 22.5 0.00 0.00 0.00 41 1015.7
20260505180533 21 254 8.0 22.5 0.00 0.00 0.00 40 1015.9
20260505180048 22 0 1.6 17.7 0.00 0.00 0.00 41 1016.0
20260505175534 22 277 4.8 17.7 0.00 0.00 0.00 40 1015.9
20260505175035 21 265 3.2 17.7 0.00 0.00 0.00 41 1015.9
20260505174557 21 258 6.4 20.9 0.00 0.00 0.00 41 1015.9
20260505174034 21 236 6.4 20.9 0.00 0.00 0.00 41 1016.0
20260505173534 22 270 3.2 14.5 0.00 0.00 0.00 40 1016.1
20260505173045 22 63 4.8 16.1 0.00 0.00 0.00 38 1016.0
20260505172535 21 265 4.8 16.1 0.00 0.00 0.00 43 1016.1
20260505172033 22 252 0.0 14.5 0.00 0.00 0.00 40 1016.2
20260505171549 22 161 3.2 9.7 0.00 0.00 0.00 41 1016.2
20260505171033 22 107 1.6 9.7 0.00 0.00 0.00 46 1016.3
20260505170533 22 283 1.6 17.7 0.00 0.00 0.00 43 1016.3
20260505170053 21 305 3.2 19.3 0.00 0.00 0.00 44 1016.4
20260505165533 22 257 3.2 19.3 0.00 0.00 0.00 44 1016.4
20260505165057 21 319 1.6 14.5 0.00 0.00 0.00 50 1016.6
20260505164546 21 207 1.6 14.5 0.00 0.00 0.00 47 1016.5
20260505164036 21 273 4.8 14.5 0.00 0.00 0.00 46 1016.6
20260505163534 21 254 1.6 12.9 0.00 0.00 0.00 46 1016.4
20260505163053 21 263 3.2 12.9 0.00 0.00 0.00 50 1016.4
20260505162535 21 352 1.6 9.7 0.00 0.00 0.00 49 1016.4
20260505162033 21 278 3.2 9.7 0.00 0.00 0.00 47 1016.4
20260505161543 21 311 1.6 9.7 0.00 0.00 0.00 48 1016.3
20260505161033 21 0 1.6 9.7 0.00 0.00 0.00 51 1016.3
20260505160533 21 0 1.6 6.4 0.00 0.00 0.00 50 1016.4
20260505153058 19 233 3.2 17.7 0.00 0.00 0.00 50 1016.9
20260505152536 19 221 3.2 11.3 0.00 0.00 0.00 51 1016.8
20260505152033 20 264 0.0 11.3 0.00 0.00 0.00 52 1016.8
20260505151544 20 249 1.6 11.3 0.00 0.00 0.00 49 1016.8
20260505151033 19 0 1.6 8.0 0.00 0.00 0.00 52 1016.7
20260505150533 18 261 1.6 11.3 0.00 0.00 0.00 53 1016.7
20260505140533 17 266 0.0 4.8 0.00 0.00 0.00 60 1017.1
20260505140106 17 0 0.0 0.0 0.00 0.00 0.00 63 1017.0
20260505125033 12 0 0.0 0.0 0.00 0.00 0.00 81 1016.2
20260505124553 11 0 0.0 0.0 0.00 0.00 0.00 82 1016.1
20260505124033 11 0 0.0 0.0 0.00 0.00 0.00 83 1016.0
20260505123534 11 0 0.0 0.0 0.00 0.00 0.00 84 1016.1
20260505123055 10 0 0.0 0.0 0.00 0.00 0.00 85 1016.1
20260505122533 10 0 0.0 0.0 0.00 0.00 0.00 85 1015.9
20260505122033 10 0 0.0 0.0 0.00 0.00 0.00 86 1016.0
20260505121550 9 0 0.0 0.0 0.00 0.00 0.00 87 1015.8
20260505121033 9 0 0.0 0.0 0.00 0.00 0.00 87 1016.0
20260505120534 8 0 0.0 0.0 0.00 0.00 0.00 87 1015.9
20260505120051 8 0 0.0 0.0 0.00 0.00 0.00 88 1015.8
20260505115535 8 0 0.0 0.0 0.00 0.00 0.00 88 1015.8
20260505115033 8 0 0.0 0.0 0.00 0.00 0.00 88 1015.8
20260505114553 8 0 0.0 0.0 0.00 0.00 0.00 89 1015.7
20260505114035 8 0 0.0 0.0 0.00 0.00 0.00 89 1015.8
20260505113533 8 0 0.0 0.0 0.00 0.00 0.00 89 1015.6
20260505113043 7 0 0.0 0.0 0.00 0.00 0.00 88 1015.6
20260505112533 7 0 0.0 0.0 0.00 0.00 0.00 88 1015.6
20260505112033 7 0 0.0 0.0 0.00 0.00 0.00 88 1015.6
20260505111547 7 0 0.0 0.0 0.00 0.00 0.00 88 1015.6
20260505111032 7 0 0.0 0.0 0.00 0.00 0.00 88 1015.4
20260505110533 7 0 0.0 0.0 0.00 0.00 0.00 88 1015.4
20260505102033 8 0 0.0 0.0 0.00 0.00 0.00 87 1015.6
20260505101549 8 0 0.0 0.0 0.00 0.00 0.00 87 1015.5
20260505101034 8 0 0.0 0.0 0.00 0.00 0.00 87 1015.4
20260505100533 8 0 0.0 0.0 0.00 0.00 0.00 87 1015.4
20260505100044 8 0 0.0 0.0 0.00 0.00 0.00 87 1015.4
20260505095533 8 0 0.0 0.0 0.00 0.00 0.00 87 1015.5
20260505095036 8 0 0.0 0.0 0.00 0.00 0.00 87 1015.6
20260505094545 8 0 0.0 0.0 0.00 0.00 0.00 87 1015.5
20260505094033 8 0 0.0 0.0 0.00 0.00 0.00 87 1015.5
20260505093533 8 0 0.0 0.0 0.00 0.00 0.00 87 1015.5
20260505093055 8 0 0.0 0.0 0.00 0.00 0.00 87 1015.6
20260505092533 8 0 0.0 0.0 0.00 0.00 0.00 87 1015.5
20260505092035 8 0 0.0 0.0 0.00 0.00 0.00 86 1015.6
20260505091600 8 0 0.0 0.0 0.00 0.00 0.00 86 1015.6
20260505091034 8 0 0.0 0.0 0.00 0.00 0.00 86 1015.7
20260505090533 8 0 0.0 0.0 0.00 0.00 0.00 87 1015.8
20260505090045 8 0 0.0 0.0 0.00 0.00 0.00 87 1015.7
20260505085533 8 0 0.0 0.0 0.00 0.00 0.00 86 1015.7
20260505085036 8 0 0.0 0.0 0.00 0.00 0.00 86 1015.7
20260505084544 8 0 0.0 0.0 0.00 0.00 0.00 86 1015.6
20260505084033 8 0 0.0 0.0 0.00 0.00 0.00 86 1015.6
20260505083533 8 0 0.0 0.0 0.00 0.00 0.00 86 1015.7
20260505083044 8 0 0.0 0.0 0.00 0.00 0.00 86 1015.7
20260505082533 8 0 0.0 0.0 0.00 0.00 0.00 86 1015.7
20260505082033 8 0 0.0 0.0 0.00 0.00 0.00 85 1015.7
20260505081546 8 0 0.0 0.0 0.00 0.00 0.00 85 1015.8
20260505081035 8 0 0.0 0.0 0.00 0.00 0.00 85 1015.9
20260505080532 8 0 0.0 0.0 0.00 0.00 0.00 85 1015.7
20260505080046 8 0 0.0 0.0 0.00 0.00 0.00 85 1015.8
20260505075532 8 0 0.0 0.0 0.00 0.00 0.00 85 1015.8
20260505075034 8 0 0.0 0.0 0.00 0.00 0.00 85 1015.9
20260505074544 8 0 0.0 0.0 0.00 0.00 0.00 85 1015.8
20260505074033 8 0 0.0 0.0 0.00 0.00 0.00 85 1015.8
20260505073533 8 0 0.0 0.0 0.00 0.00 0.00 85 1015.8
20260505073052 9 0 0.0 0.0 0.00 0.00 0.00 85 1015.7
20260505072534 9 0 0.0 0.0 0.00 0.00 0.00 85 1015.9
20260505072034 9 0 0.0 0.0 0.00 0.00 0.00 84 1015.8
20260505071557 9 0 0.0 0.0 0.00 0.00 0.00 84 1015.7
20260505071034 9 0 0.0 0.0 0.00 0.00 0.00 84 1015.8
20260505070535 9 0 0.0 0.0 0.00 0.00 0.00 84 1015.8
20260505070056 9 0 0.0 0.0 0.00 0.00 0.00 84 1015.7
20260505065533 9 0 0.0 0.0 0.00 0.00 0.00 84 1015.8
20260505065032 9 0 0.0 0.0 0.00 0.00 0.00 83 1015.7
20260505064549 9 0 0.0 0.0 0.00 0.00 0.00 83 1015.7
20260505064035 9 0 0.0 0.0 0.00 0.00 0.00 83 1015.8
20260505063532 10 0 0.0 0.0 0.00 0.00 0.00 83 1015.7
20260505063044 10 0 0.0 0.0 0.00 0.00 0.00 83 1015.6
20260505062533 10 0 0.0 0.0 0.00 0.00 0.00 83 1015.7
20260505062032 10 0 0.0 0.0 0.00 0.00 0.00 83 1015.8
20260505061554 10 0 0.0 0.0 0.00 0.00 0.00 82 1015.8
20260505061033 10 0 0.0 0.0 0.00 0.00 0.00 82 1015.8
20260505060535 10 0 0.0 0.0 0.00 0.00 0.00 82 1015.7
20260505060052 10 0 0.0 0.0 0.00 0.00 0.00 82 1015.8
20260505055535 10 0 0.0 0.0 0.00 0.00 0.00 82 1015.8
20260505055033 10 0 0.0 0.0 0.00 0.00 0.00 82 1015.9
20260505054547 10 0 0.0 0.0 0.00 0.00 0.00 82 1015.9
20260505054033 10 0 0.0 0.0 0.00 0.00 0.00 81 1015.9
20260505053532 10 0 0.0 0.0 0.00 0.00 0.00 81 1016.1
20260505053047 10 0 0.0 0.0 0.00 0.00 0.00 81 1016.0
20260505052532 10 0 0.0 0.0 0.00 0.00 0.00 81 1016.0
20260505052034 11 0 0.0 0.0 0.00 0.00 0.00 81 1015.9
20260505051557 11 0 0.0 0.0 0.00 0.00 0.00 80 1015.9
20260505051033 11 0 0.0 0.0 0.00 0.00 0.00 80 1015.9
20260505050533 11 0 0.0 0.0 0.00 0.00 0.00 80 1015.9
20260505041547 11 0 0.0 0.0 0.00 0.00 0.00 78 1016.1
20260505041033 11 0 0.0 0.0 0.00 0.00 0.00 78 1016.0
20260505040533 11 0 0.0 0.0 0.00 0.00 0.00 78 1016.0
20260505040047 11 0 0.0 0.0 0.00 0.00 0.00 78 1015.9
20260505035534 12 0 0.0 0.0 0.00 0.00 0.00 78 1016.0
20260505035032 12 0 0.0 0.0 0.00 0.00 0.00 78 1016.0
20260505034546 12 0 0.0 0.0 0.00 0.00 0.00 78 1016.0
20260505034033 12 0 0.0 0.0 0.00 0.00 0.00 77 1016.1
20260505033533 12 0 0.0 0.0 0.00 0.00 0.00 77 1015.9
20260505033045 12 0 0.0 0.0 0.00 0.00 0.00 76 1016.1
20260505032533 12 0 0.0 0.0 0.00 0.00 0.00 77 1016.1
20260505032036 12 0 0.0 0.0 0.00 0.00 0.00 77 1016.1
20260505031552 12 0 0.0 0.0 0.00 0.00 0.00 76 1016.0
20260505031033 12 0 0.0 3.2 0.00 0.00 0.00 76 1016.2
20260505030533 12 0 0.0 3.2 0.00 0.00 0.00 75 1016.2
20260505030044 13 0 0.0 3.2 0.00 0.00 0.00 75 1016.2
20260505025532 13 338 0.0 1.6 0.00 0.00 0.00 74 1016.2
20260505025033 13 0 0.0 0.0 0.00 0.00 0.00 74 1016.2
20260505024549 13 0 0.0 0.0 0.00 0.00 0.00 74 1016.2
20260505024035 13 0 0.0 0.0 0.00 0.00 0.00 74 1016.1
20260505023536 13 0 0.0 0.0 0.00 0.00 0.00 73 1016.1
20260505023051 13 0 0.0 0.0 0.00 0.00 0.00 73 1016.1
20260505022533 13 0 0.0 0.0 0.00 0.00 0.00 72 1016.0
20260505022032 14 0 0.0 0.0 0.00 0.00 0.00 71 1015.9
20260505021545 14 0 0.0 0.0 0.00 0.00 0.00 71 1016.1
20260505021032 14 0 0.0 0.0 0.00 0.00 0.00 71 1015.9
20260505020532 14 0 0.0 0.0 0.00 0.00 0.00 70 1015.9
20260505020043 15 0 0.0 1.6 0.00 0.00 0.00 70 1015.7
20260505015537 15 0 0.0 1.6 0.00 0.00 0.00 69 1015.7
20260505015035 15 0 0.0 1.6 0.00 0.00 0.00 68 1015.6
20260505014542 15 0 0.0 3.2 0.00 0.00 0.00 67 1015.7
20260505014038 16 0 0.0 3.2 0.00 0.00 0.00 65 1015.6
20260505013532 16 0 0.0 3.2 0.00 0.00 0.00 63 1015.6
20260505013101 16 0 0.0 1.6 0.00 0.00 0.00 64 1015.6
20260505012535 16 0 0.0 1.6 0.00 0.00 0.00 63 1015.6
20260505012033 16 0 0.0 1.6 0.00 0.00 0.00 63 1015.6
20260505011547 16 0 0.0 1.6 0.00 0.00 0.00 64 1015.6
20260505011032 16 0 0.0 1.6 0.00 0.00 0.00 62 1015.5
20260505010533 17 0 0.0 1.6 0.00 0.00 0.00 62 1015.5
20260505010055 17 0 0.0 1.6 0.00 0.00 0.00 62 1015.5
20260505005534 17 269 0.0 1.6 0.00 0.00 0.00 60 1015.4
20260505005033 17 0 0.0 1.6 0.00 0.00 0.00 59 1015.3
20260505004545 18 0 0.0 1.6 0.00 0.00 0.00 58 1015.2
20260505004032 18 0 0.0 11.3 0.00 0.00 0.00 56 1015.2
20260505003533 18 0 0.0 11.3 0.00 0.00 0.00 55 1015.2
20260505003042 18 271 1.6 11.3 0.00 0.00 0.00 53 1015.0
20260505002533 18 309 1.6 9.7 0.00 0.00 0.00 53 1015.0
20260505002034 19 287 1.6 9.7 0.00 0.00 0.00 53 1015.1
20260505001547 19 288 1.6 12.9 0.00 0.00 0.00 52 1015.0
20260505001034 19 289 1.6 12.9 0.00 0.00 0.00 52 1014.8
20260505000535 19 241 3.2 12.9 0.00 0.00 0.00 51 1014.9
20260505000057 19 352 3.2 12.9 0.00 0.00 0.00 52 1014.9
20260504235533 20 261 0.0 12.9 0.00 0.00 0.00 51 1014.8
20260504235035 20 265 1.6 6.4 0.00 0.00 0.00 51 1014.7
20260504234544 20 0 1.6 6.4 0.00 0.00 0.00 51 1014.7
20260504234033 20 272 1.6 6.4 0.00 0.00 0.00 51 1014.7
20260504233533 20 283 3.2 9.7 0.00 0.00 0.00 51 1014.7
20260504233047 20 261 1.6 9.7 0.00 0.00 0.00 51 1014.6
20260504232534 20 254 1.6 9.7 0.00 0.00 0.00 51 1014.6
20260504232035 20 261 1.6 9.7 0.00 0.00 0.00 51 1014.6
20260504231546 20 259 3.2 11.3 0.00 0.00 0.00 50 1014.6
20260504231032 20 261 3.2 11.3 0.00 0.00 0.00 50 1014.6
20260504230534 20 262 1.6 11.3 0.00 0.00 0.00 50 1014.4
20260504230040 21 254 0.0 14.5 0.00 0.00 0.00 50 1014.5
20260504225532 21 258 4.8 14.5 0.00 0.00 0.00 49 1014.4
20260504225036 21 290 3.2 19.3 0.00 0.00 0.00 48 1014.5
20260504224545 21 261 3.2 19.3 0.00 0.00 0.00 48 1014.4
20260504224031 21 267 4.8 17.7 0.00 0.00 0.00 48 1014.5
20260504223533 21 271 3.2 12.9 0.00 0.00 0.00 49 1014.5
20260504223054 21 249 3.2 12.9 0.00 0.00 0.00 48 1014.4
20260504222534 21 279 3.2 12.9 0.00 0.00 0.00 47 1014.4
20260504222033 22 0 0.0 12.9 0.00 0.00 0.00 47 1014.4
20260504221544 22 5 3.2 12.9 0.00 0.00 0.00 47 1014.4
20260504221036 22 0 1.6 14.5 0.00 0.00 0.00 46 1014.4
20260504220533 22 286 3.2 14.5 0.00 0.00 0.00 46 1014.4
20260504220045 22 186 1.6 11.3 0.00 0.00 0.00 47 1014.3
20260504215532 22 267 4.8 14.5 0.00 0.00 0.00 44 1014.2
20260504215034 22 280 4.8 14.5 0.00 0.00 0.00 45 1014.2
20260504214555 22 0 1.6 9.7 0.00 0.00 0.00 44 1014.2
20260504214034 22 0 3.2 9.7 0.00 0.00 0.00 43 1014.2
20260504213534 22 258 1.6 9.7 0.00 0.00 0.00 45 1014.3
20260504213055 22 265 4.8 9.7 0.00 0.00 0.00 42 1014.2
20260504212532 22 249 3.2 12.9 0.00 0.00 0.00 44 1014.3
20260504212034 22 254 3.2 12.9 0.00 0.00 0.00 43 1014.2
20260504211551 22 265 4.8 12.9 0.00 0.00 0.00 43 1014.2
20260504211034 22 265 0.0 6.4 0.00 0.00 0.00 46 1014.2
20260504210537 22 265 1.6 4.8 0.00 0.00 0.00 43 1014.3
20260504210047 22 24 0.0 6.4 0.00 0.00 0.00 41 1014.4
20260504205537 22 255 1.6 6.4 0.00 0.00 0.00 42 1014.4
20260504205034 22 265 1.6 4.8 0.00 0.00 0.00 45 1014.4
20260504204543 22 0 1.6 8.0 0.00 0.00 0.00 41 1014.5
20260504204032 22 254 1.6 11.3 0.00 0.00 0.00 40 1014.5
20260504203533 22 256 3.2 11.3 0.00 0.00 0.00 42 1014.5
20260504203042 22 232 3.2 9.7 0.00 0.00 0.00 40 1014.5
20260504202532 22 250 1.6 11.3 0.00 0.00 0.00 41 1014.5
20260504202034 22 252 0.0 11.3 0.00 0.00 0.00 42 1014.7
20260504201600 22 244 3.2 11.3 0.00 0.00 0.00 42 1014.7
20260504201037 22 259 3.2 11.3 0.00 0.00 0.00 40 1014.8
20260504200533 22 254 1.6 9.7 0.00 0.00 0.00 40 1014.8
20260504200048 22 246 1.6 9.7 0.00 0.00 0.00 38 1014.9
20260504195533 22 0 0.0 9.7 0.00 0.00 0.00 37 1015.0
20260504195033 22 0 1.6 11.3 0.00 0.00 0.00 36 1015.0
20260504194548 22 0 3.2 11.3 0.00 0.00 0.00 37 1015.1
20260504194033 22 0 1.6 8.0 0.00 0.00 0.00 36 1015.1
20260504193534 23 300 0.0 6.4 0.00 0.00 0.00 36 1015.2
20260504193046 22 192 0.0 8.0 0.00 0.00 0.00 37 1015.2
20260504192533 22 294 0.0 11.3 0.00 0.00 0.00 34 1015.4